Location: Ostrava
(49.8330°N, 18.2830°E)
Time: 02:13:25
(UTC+02:00)

Lacrosse 5 - Visible Passes

Search period start: 26 June 2017 00:00
Search period end: 06 July 2017 00:00
Orbit: 716 x 723 km, 57.0° (Epoch: 22 June)

Date Brightness Start Highest point End Pass type
(mag) Time Alt. Az. Time Alt. Az. Time Alt. Az.
26 Jun 3.5 22:50:39 10° WNW 22:54:29 22° SW 22:57:45 12° S visible
27 Jun 2.9 21:56:58 10° WNW 22:01:35 36° SW 22:06:10 10° SSE visible
28 Jun 4.1 22:48:27 10° W 22:50:35 13° WSW 22:52:44 10° SW visible
29 Jun 3.6 21:53:57 10° WNW 21:57:49 22° SW 22:01:39 10° S visible
01 Jul 4.2 21:51:43 10° W 21:53:56 13° WSW 21:56:08 10° SW visible
